Total_Precipitation_Accumulation
0.77 0.81 0.86 0.89 0.94 1.06 1.17 1.25 1.28 1.29 1.29 1.37 1.48 1.58 1.60 1.64 1.70 1.71 1.64 1.60 1.56 1.49 1.48 1.54 1.54 1.48 1.54 1.54 1.57 1.67 1.79 1.96 1.99 1.61 1.37 1.37 1.48 1.52 1.55 1.46 1.42 1.42 1.40
0.64 0.66 0.70 0.74 0.78 0.85 0.95 1.03 1.09 1.13 1.16 1.19 1.19 1.22 1.32 1.40 1.50 1.58 1.56 1.51 1.48 1.42 1.37 1.42 1.46 1.46 1.50 1.52 1.57 1.63 1.66 1.73 1.82 1.70 1.45 1.36 1.32 1.29 1.27 1.26 1.23 1.17 1.13
0.57 0.61 0.63 0.63 0.64 0.68 0.73 0.79 0.82 0.89 0.98 1.05 1.06 1.05 1.05 1.09 1.17 1.30 1.40 1.44 1.42 1.38 1.39 1.39 1.40 1.47 1.52 1.53 1.57 1.61 1.58 1.52 1.51 1.48 1.32 1.17 1.14 1.12 1.19 1.16 1.14 1.13 1.03
0.53 0.55 0.59 0.58 0.59 0.61 0.60 0.64 0.66 0.68 0.71 0.76 0.82 0.85 0.90 0.94 0.97 1.04 1.15 1.27 1.35 1.38 1.42 1.43 1.43 1.50 1.59 1.62 1.62 1.60 1.54 1.48 1.40 1.36 1.28 1.17 1.10 1.05 1.12 1.17 1.16 1.15 1.08
0.52 0.51 0.52 0.55 0.56 0.55 0.54 0.53 0.52 0.53 0.54 0.57 0.63 0.68 0.75 0.81 0.87 0.93 0.99 1.10 1.17 1.25 1.34 1.43 1.47 1.58 1.64 1.60 1.48 1.38 1.33 1.32 1.28 1.26 1.19 1.10 1.05 1.03 1.03 0.98 0.99 1.03 1.07
0.51 0.51 0.49 0.51 0.53 0.53 0.50 0.46 0.45 0.47 0.51 0.54 0.57 0.61 0.68 0.73 0.94 1.00 0.97 0.97 1.06 1.14 1.19 1.25 1.33 1.41 1.34 1.34 1.30 1.23 1.25 1.31 1.29 1.19 1.05 0.92 0.79 0.76 0.78 0.87 0.96 1.09 1.16
0.58 0.54 0.50 0.50 0.52 0.53 0.53 0.53 0.53 0.52 0.55 0.59 0.60 0.63 0.66 0.76 0.92 0.97 1.08 1.03 1.04 1.07 1.07 1.08 1.07 1.03 1.04 0.92 0.98 1.00 1.01 1.05 1.05 1.00 0.96 0.77 0.67 0.65 0.80 0.94 0.97 0.99 0.91
0.70 0.68 0.63 0.64 0.67 0.70 0.71 0.72 0.71 0.72 0.73 0.74 0.74 0.76 0.80 0.88 0.98 0.97 1.01 0.96 0.92 0.89 0.84 0.84 0.85 0.82 0.82 0.87 0.88 0.88 0.77 0.72 0.71 0.67 0.65 0.61 0.62 0.70 0.87 1.04 1.07 1.09 0.97
0.87 0.94 0.92 0.90 0.94 0.98 1.02 1.03 1.00 0.99 0.98 0.98 0.98 0.96 0.94 0.94 0.93 0.84 0.83 0.78 0.76 0.70 0.65 0.66 0.69 0.68 0.78 0.93 0.93 0.89 0.79 0.71 0.71 0.75 0.75 0.74 0.81 0.87 0.95 1.12 1.29 1.44 1.36
0.98 1.05 1.04 1.03 1.03 1.05 1.07 1.05 1.00 0.95 0.94 0.92 0.91 0.87 0.81 0.73 0.71 0.67 0.66 0.62 0.61 0.55 0.54 0.57 0.67 0.70 0.83 0.98 0.98 0.94 0.89 0.76 0.72 0.76 0.75 0.74 0.72 0.76 0.87 0.88 1.03 1.38 1.41
0.96 0.92 0.86 0.83 0.80 0.78 0.76 0.73 0.70 0.67 0.65 0.62 0.60 0.57 0.52 0.49 0.50 0.54 0.58 0.59 0.61 0.62 0.59 0.55 0.58 0.73 0.83 0.95 1.02 0.95 0.92 0.89 0.85 0.85 0.85 0.81 0.79 0.81 0.80 0.77 0.82 1.11 1.40
0.67 0.60 0.54 0.52 0.51 0.51 0.52 0.50 0.46 0.45 0.45 0.42 0.40 0.38 0.37 0.38 0.42 0.48 0.56 0.62 0.67 0.69 0.62 0.52 0.52 0.69 0.82 0.88 0.89 0.93 1.02 1.03 0.94 0.93 0.93 0.90 0.85 0.81 0.78 0.76 0.78 0.84 0.96
0.36 0.33 0.30 0.30 0.31 0.33 0.37 0.38 0.35 0.34 0.37 0.37 0.37 0.38 0.38 0.36 0.39 0.47 0.53 0.58 0.65 0.66 0.61 0.64 0.68 0.76 0.80 0.80 0.82 0.88 0.93 0.90 0.91 0.92 0.86 0.77 0.70 0.70 0.75 0.83 0.89 0.91 0.92
0.28 0.27 0.26 0.26 0.27 0.30 0.33 0.37 0.40 0.41 0.44 0.45 0.45 0.45 0.42 0.39 0.39 0.44 0.53 0.57 0.63 0.66 0.68 0.69 0.71 0.76 0.79 0.80 0.83 0.82 0.81 0.84 0.90 0.89 0.78 0.71 0.72 0.76 0.83 0.86 0.95 1.00 1.11
0.26 0.27 0.29 0.28 0.28 0.32 0.35 0.41 0.49 0.50 0.58 0.68 0.66 0.62 0.62 0.57 0.51 0.63 0.73 0.74 0.75 0.78 0.84 0.83 0.77 0.73 0.76 0.77 0.76 0.77 0.78 0.83 0.89 0.86 0.87 0.87 0.85 0.85 0.86 0.85 0.95 1.05 1.13
0.31 0.31 0.34 0.36 0.35 0.36 0.39 0.43 0.49 0.55 0.59 0.61 0.63 0.68 0.68 0.69 0.71 0.75 0.77 0.79 0.81 0.89 0.95 0.88 0.75 0.68 0.67 0.68 0.70 0.74 0.77 0.80 0.83 0.89 0.96 1.00 1.01 0.99 0.98 0.94 1.00 1.12 1.11
0.40 0.41 0.43 0.44 0.44 0.46 0.47 0.49 0.52 0.55 0.59 0.60 0.58 0.60 0.65 0.70 0.76 0.78 0.79 0.82 0.87 0.91 0.88 0.73 0.64 0.62 0.62 0.64 0.68 0.73 0.76 0.77 0.86 0.98 1.04 1.05 1.09 1.11 1.10 1.07 1.05 1.12 1.12
0.35 0.39 0.43 0.45 0.47 0.50 0.52 0.53 0.55 0.57 0.58 0.56 0.56 0.59 0.63 0.68 0.74 0.80 0.85 0.90 0.90 0.83 0.74 0.66 0.63 0.63 0.66 0.71 0.74 0.78 0.80 0.83 0.92 0.99 1.02 1.06 1.13 1.22 1.23 1.15 1.10 1.14 1.18
0.35 0.39 0.44 0.48 0.50 0.52 0.53 0.55 0.56 0.56 0.56 0.55 0.54 0.59 0.68 0.75 0.78 0.82 0.85 0.86 0.81 0.72 0.67 0.66 0.66 0.69 0.73 0.78 0.82 0.85 0.89 0.93 0.94 1.00 1.03 1.03 1.12 1.28 1.25 1.09 1.11 1.16 1.25
0.38 0.47 0.54 0.54 0.54 0.55 0.57 0.60 0.60 0.59 0.59 0.58 0.58 0.66 0.80 0.89 0.85 0.78 0.76 0.74 0.73 0.70 0.69 0.72 0.73 0.77 0.83 0.87 0.91 0.94 0.97 0.95 0.97 1.02 1.02 1.04 1.11 1.25 1.26 1.15 1.15 1.23 1.19
0.42 0.47 0.56 0.56 0.54 0.56 0.60 0.64 0.65 0.65 0.64 0.61 0.61 0.72 0.98 1.06 0.92 0.79 0.76 0.74 0.76 0.78 0.81 0.83 0.82 0.84 0.89 0.94 0.97 0.98 0.98 0.93 0.92 0.99 1.03 1.06 1.13 1.22 1.17 1.18 1.17 1.20 1.28
0.47 0.49 0.52 0.56 0.57 0.61 0.67 0.69 0.70 0.68 0.63 0.62 0.60 0.67 0.84 0.85 0.79 0.77 0.75 0.73 0.74 0.79 0.86 0.94 0.92 0.87 0.92 1.04 1.10 1.12 1.03 0.91 0.87 0.96 1.04 1.06 1.12 1.16 1.19 1.25 1.25 1.32 1.37
0.53 0.54 0.55 0.55 0.57 0.64 0.67 0.63 0.65 0.65 0.63 0.62 0.62 0.64 0.68 0.70 0.68 0.70 0.72 0.73 0.76 0.79 0.82 0.89 0.91 0.83 0.81 0.94 1.06 1.22 1.24 1.04 0.95 1.08 1.27 1.27 1.25 1.28 1.37 1.41 1.33 1.31 1.22
0.54 0.55 0.56 0.56 0.58 0.60 0.61 0.59 0.59 0.62 0.64 0.64 0.64 0.63 0.63 0.64 0.65 0.66 0.70 0.74 0.78 0.79 0.80 0.84 0.86 0.82 0.80 0.88 0.94 1.00 1.08 1.17 1.37 1.50 1.63 1.83 1.71 1.52 1.49 1.43 1.29 1.21 1.22
0.54 0.56 0.58 0.59 0.61 0.62 0.62 0.60 0.59 0.60 0.62 0.63 0.64 0.63 0.61 0.62 0.63 0.63 0.66 0.71 0.75 0.77 0.75 0.77 0.81 0.82 0.82 0.84 0.87 0.91 0.99 1.17 1.50 1.92 2.10 2.01 1.71 1.47 1.47 1.42 1.29 1.24 1.25
0.54 0.58 0.61 0.62 0.63 0.62 0.62 0.62 0.61 0.61 0.63 0.64 0.65 0.66 0.66 0.66 0.65 0.66 0.68 0.71 0.73 0.72 0.71 0.72 0.73 0.77 0.81 0.84 0.82 0.87 1.00 1.12 1.24 1.45 1.87 1.99 1.74 1.47 1.45 1.53 1.39 1.33 1.32